Weather History for Milford, UT

Change the Weather History Date:

Wednesday, June 12, 2013

  Actual Average Record
Temperature  
Mean Temperature 78 °F -  
Max Temperature 95 °F 82 °F 95 °F (2013)
Min Temperature 61 °F 46 °F 37 °F (1998)
Cooling Degree Days 13    
Growing Degree Days 28 (Base 50)    
Moisture  
Dew Point 21 °F    
Average Humidity 12    
Maximum Humidity 21    
Minimum Humidity 4    
Precipitation  
Precipitation 0.00 in - - ()
Sea Level Pressure  
Sea Level Pressure 29.82 in    
Wind  
Wind Speed 13 mph (SSW)    
Max Wind Speed 28 mph    
Max Gust Speed 44 mph    
Visibility 10 miles    
Events      
Averages and records for this station are not official NWS values.
T = Trace of Precipitation, MM = Missing Value Source: NWS Daily Summary

Daily Weather History Graph

Daily Weather History Graph

Search for Another Location

Airport:

Trip Planner

Search our weather history database for the weather conditions in past years. The results will help you decide how hot, cold, wet, or windy it might be!

Date:

Astronomy

Jun. 12, 2013 Rise Set
Actual Time 6:07 AM MDT 8:56 PM MDT
Civil Twilight 5:35 AM MDT 9:28 PM MDT
Nautical Twilight 4:56 AM MDT 10:07 PM MDT
Astronomical Twilight 4:11 AM MDT 10:53 PM MDT
Moon 9:48 AM MDT (6/12) 11:37 PM MDT (6/12)
Length of Visible Light 15h 52m
Length of Day
14h 48m
Waxing Crescent, 14% of the Moon is Illuminated
Jun 12
Waxing Crescent
Jun 16
First Quarter
Jun 23
Full
Jun 29
Last Quarter
Jul 8
New

Hourly Weather History & Observations

Time (MDT) Temp. Dew Point Humidity Pressure Visibility Wind Dir Wind Speed Gust Speed Precip Events Conditions
12:52 AM 69.1 °F 21.0 °F 16% 29.84 in 10.0 mi SSW 5.8 mph - N/A   Clear
1:52 AM 68.0 °F 21.9 °F 17% 29.84 in 10.0 mi South 9.2 mph - N/A   Clear
2:52 AM 63.0 °F 21.0 °F 20% 29.85 in 10.0 mi SW 6.9 mph - N/A   Clear
3:52 AM 63.0 °F 21.0 °F 20% 29.84 in 10.0 mi SW 9.2 mph - N/A   Clear
4:52 AM 64.9 °F 21.0 °F 19% 29.83 in 10.0 mi SSW 9.2 mph - N/A   Clear
5:52 AM 64.0 °F 21.9 °F 20% 29.84 in 10.0 mi SSW 12.7 mph - N/A   Clear
6:52 AM 63.0 °F 21.9 °F 21% 29.87 in 10.0 mi SSW 11.5 mph - N/A   Clear
7:52 AM 69.1 °F 24.1 °F 18% 29.86 in 10.0 mi SSW 10.4 mph - N/A   Clear
8:52 AM 72.0 °F 28.0 °F 20% 29.89 in 10.0 mi SSW 10.4 mph - N/A   Clear
9:52 AM 78.1 °F 25.0 °F 14% 29.89 in 10.0 mi SSW 11.5 mph - N/A   Clear
10:52 AM 81.0 °F 25.0 °F 13% 29.89 in 10.0 mi South 15.0 mph - N/A   Clear
11:52 AM 88.0 °F 12.9 °F 6% 29.85 in 10.0 mi SW 24.2 mph 34.5 mph N/A   Clear
12:52 PM 90.0 °F 18.0 °F 7% 29.83 in 10.0 mi SW 16.1 mph 25.3 mph N/A   Clear
1:52 PM 91.0 °F 18.0 °F 7% 29.81 in 9.0 mi SSW 20.7 mph 32.2 mph N/A   Clear
2:52 PM 93.9 °F 17.1 °F 6% 29.80 in 8.0 mi SSW 24.2 mph 35.7 mph N/A   Clear
3:52 PM 93.0 °F 18.0 °F 6% 29.78 in 10.0 mi SSW 27.6 mph 38.0 mph N/A   Clear
4:52 PM 91.9 °F 21.0 °F 8% 29.78 in 9.0 mi SW 26.5 mph 43.7 mph N/A   Clear
5:52 PM 91.0 °F 16.0 °F 6% 29.76 in 10.0 mi SSW 25.3 mph 40.3 mph N/A   Clear
6:52 PM 88.0 °F 23.0 °F 9% 29.77 in 10.0 mi SSW 21.9 mph 42.6 mph N/A   Clear
7:52 PM 87.1 °F 19.0 °F 8% 29.75 in 10.0 mi SW 24.2 mph 38.0 mph N/A   Clear
8:52 PM 82.9 °F 21.9 °F 11% 29.76 in 10.0 mi SSW 17.3 mph 25.3 mph N/A   Clear
9:52 PM 75.9 °F 24.1 °F 15% 29.77 in 10.0 mi South 9.2 mph - N/A   Clear
10:52 PM 72.0 °F 26.1 °F 18% 29.78 in 10.0 mi South 9.2 mph - N/A   Clear
11:52 PM 75.0 °F 30.0 °F 19% 29.75 in 10.0 mi SSW 11.5 mph - N/A   Clear